Location: *
(32.8667°N, 13.1833°E)
Time: 11:12:58
(UTC+00:00)

COSMOS 2428 - Visible Passes

Search period start: 19 November 2019 00:00
Search period end: 29 November 2019 00:00
Orbit: 844 x 858 km, 70.9° (Epoch: 19 November)

Date Brightness Start Highest point End Pass type
(mag) Time Alt. Az. Time Alt. Az. Time Alt. Az.
19 Nov 5.4 04:24:16 10° NE 04:26:09 12° NE 04:28:03 10° ENE visible
20 Nov 5.4 04:12:01 10° NE 04:13:55 12° NE 04:15:49 10° ENE visible
21 Nov 5.4 03:59:47 10° NE 04:01:41 12° NE 04:03:34 10° ENE visible
22 Nov 5.4 03:47:33 10° NE 03:49:27 12° NE 03:51:20 10° ENE visible
23 Nov 5.4 03:35:18 10° NE 03:37:13 12° NE 03:39:06 10° ENE visible
23 Nov 2.8 05:16:25 10° NNW 05:22:10 87° WSW 05:27:54 10° SSE visible
23 Nov 4.6 18:20:54 10° S 18:22:12 17° S 18:22:12 17° S visible
24 Nov 5.4 03:23:05 10° NE 03:24:58 12° NE 03:26:51 10° ENE visible
24 Nov 2.8 05:04:11 10° NNW 05:09:56 87° WSW 05:15:39 10° SSE visible
24 Nov 3.9 18:08:39 10° S 18:11:24 28° SSE 18:11:24 28° SSE visible
25 Nov 5.4 03:10:50 10° NE 03:12:44 12° NE 03:14:38 10° ENE visible
25 Nov 2.7 04:51:56 10° NNW 04:57:41 87° WSW 05:03:25 10° SSE visible
25 Nov 3.2 17:56:25 10° S 18:00:35 41° SE 18:00:35 41° SE visible
25 Nov 5.5 19:42:11 10° WSW 19:42:40 12° WSW 19:42:40 12° WSW visible
26 Nov 5.4 02:58:36 10° NE 03:00:30 12° NE 03:02:23 10° ENE visible
26 Nov 2.7 04:39:42 10° NNW 04:45:27 87° WSW 04:51:11 10° SSE visible
26 Nov 2.9 17:44:11 10° S 17:49:34 48° ESE 17:49:46 47° E visible
26 Nov 5.2 19:29:56 10° WSW 19:31:51 16° W 19:31:51 16° W visible
27 Nov 5.4 02:46:22 10° NE 02:48:15 12° NE 02:50:09 10° ENE visible
27 Nov 2.7 04:27:28 10° NNW 04:33:13 87° WSW 04:38:56 10° SSE visible
27 Nov 2.9 17:31:56 10° S 17:37:20 48° ESE 17:38:54 38° ENE visible
27 Nov 4.9 19:17:43 10° WSW 19:20:59 20° WNW 19:20:59 20° WNW visible
28 Nov 5.4 02:34:08 10° NE 02:36:01 12° NE 02:37:55 10° ENE visible
28 Nov 2.7 04:16:06 15° NNW 04:20:59 87° WSW 04:26:43 10° SSE visible
28 Nov 2.9 17:19:42 10° S 17:25:05 47° ESE 17:27:59 26° NE visible
28 Nov 4.8 19:05:28 10° WSW 19:09:33 20° WNW 19:10:03 20° NW visible
